Agadir Al Massira, Morocco

9:35 AM WET on May 26, 2017 (GMT +0000)
Agadir Al Massira

Weather History for GMAD - January, 2013

Change the Weather History Date:

Thursday, January 10, 2013

  Actual Average Record
Temperature  
Mean Temperature 58 °F -  
Max Temperature 76 °F - - ()
Min Temperature 41 °F - - ()
Degree Days  
Heating Degree Days 6    
Growing Degree Days 8 (Base 50)    
Moisture  
Dew Point 36 °F    
Average Humidity 49    
Maximum Humidity 82    
Minimum Humidity 11    
Precipitation  
Precipitation 0.00 in - - ()
Sea Level Pressure  
Sea Level Pressure 30.22 in    
Wind  
Wind Speed 6 mph ()    
Max Wind Speed 13 mph    
Max Gust Speed -    
Visibility 6.1 miles    
Events      
T = Trace of Precipitation, MM = Missing Value Source: Averaged Metar Reports

Daily Weather History Graph

Daily Weather History Graph

Search for Another Location

Airport or City:

Trip Planner

Search our weather history database for the weather conditions in past years. The results will help you decide how hot, cold, wet, or windy it might be!

Date:

Astronomy

Jan. 10, 2013 Rise Set
Actual Time 7:35 AM WET 5:55 PM WET
Civil Twilight 7:09 AM WET 6:21 PM WET
Nautical Twilight 6:39 AM WET 6:51 PM WET
Astronomical Twilight 6:10 AM WET 7:20 PM WET
Moon 6:02 AM WET (1/10) 4:47 PM WET (1/10)
Length of Visible Light 11h 12m
Length of Day
10h 20m
Waning Crescent, 3% of the Moon is Illuminated
Jan 10
Waning Crescent
Jan 11
New
Jan 18
First Quarter
Jan 27
Full
Feb 3
Last Quarter

Hourly Weather History & Observations

Time (WET) Temp. Windchill Dew Point Humidity Pressure Visibility Wind Dir Wind Speed Gust Speed Precip Events Conditions
12:00 AM 48 °F - 42 °F 71% 30.30 in 6 mi East 5.8 mph - -   Clear
12:00 AM 48.2 °F - 41.0 °F 76% 30.27 in - East 5.8 mph - N/A   Clear
1:00 AM 48.2 °F - 39.2 °F 71% 30.27 in - East 8.1 mph - N/A   Clear
2:00 AM 50.0 °F - 35.6 °F 58% 30.27 in 6.2 mi East 6.9 mph - N/A   Unknown
3:00 AM 47 °F - 34 °F 48% 30.29 in 6 mi NNE 3.5 mph - -   Clear
3:00 AM 48.2 °F - 33.8 °F 58% 30.27 in - NE 3.5 mph - N/A   Clear
4:00 AM 44.6 °F 41.4 °F 32.0 °F 61% 30.24 in - NE 5.8 mph - N/A   Clear
5:00 AM 42.8 °F 38.6 °F 32.0 °F 66% 30.24 in 6.2 mi ENE 6.9 mph - N/A   Unknown
6:00 AM 44 °F - 30 °F 47%  in 6 mi ENE 8.1 mph - -   Clear
6:00 AM 44.6 °F 40.2 °F 30.2 °F 57% 30.24 in - ENE 8.1 mph - N/A   Unknown
7:00 AM 44.6 °F 40.2 °F 30.2 °F 57% 30.24 in - East 8.1 mph - N/A   Clear
8:00 AM 44.6 °F 40.7 °F 30.2 °F 57% 30.27 in - East 6.9 mph - N/A   Clear
9:00 AM 50 °F - 29 °F 33% 30.28 in 6 mi ENE 9.2 mph - -   Clear
10:00 AM 55.4 °F - 30.2 °F 38% 30.27 in - ENE 10.4 mph - N/A   Clear
11:00 AM 64.4 °F - 30.2 °F 28% 30.27 in - ENE 8.1 mph - N/A   Clear
12:00 PM 71 °F - 28 °F 11% 30.24 in 6 mi East 5.8 mph - -   Clear
12:00 PM 71.6 °F - 28.4 °F 20% 30.24 in - East 5.8 mph - N/A   Clear
1:00 PM 73.4 °F - 23.0 °F 15% 30.21 in - Variable 2.3 mph - N/A   Clear
2:00 PM 75.2 °F - 23.0 °F 14% 30.18 in - West 4.6 mph - N/A   Clear
3:00 PM 73 °F - 32 °F 13% 30.17 in 6 mi West 11.5 mph - -   Scattered Clouds
3:00 PM 73.4 °F - 32.0 °F 22% 30.15 in - West 11.5 mph - N/A   Clear
4:00 PM 69.8 °F - 37.4 °F 31% 30.15 in 6.2 mi West 12.7 mph - N/A   Unknown
5:00 PM 68.0 °F - 35.6 °F 30% 30.15 in - West 10.4 mph - N/A   Clear
6:00 PM 63 °F - 40 °F 31% 30.17 in 6 mi SW 5.8 mph - -  
6:00 PM 62.6 °F - 41.0 °F 45% 30.15 in - SW 5.8 mph - N/A   Clear
7:00 PM 59.0 °F - 48.2 °F 67% 30.15 in - South 8.1 mph - N/A   Clear
8:00 PM 57.2 °F - 50.0 °F 77% 30.18 in - South 8.1 mph - N/A   Unknown
9:00 PM 55 °F - 49 °F 75% 30.21 in 6 mi South 5.8 mph - -  
9:00 PM 55.4 °F - 50.0 °F 82% 30.18 in - South 5.8 mph - N/A   Clear
10:00 PM 50.0 °F - 44.6 °F 82% 30.21 in - ESE 3.5 mph - N/A   Clear
11:00 PM 48.2 °F - 42.8 °F 82% 30.21 in - ENE 5.8 mph - N/A   Clear